Weather Service Report


100 
ASCA44 KEWX 290720
RWRMX 

LATIN AMERICA AND CARIBBEAN REGIONAL WEATHER ROUNDUP
NATIONAL WEATHER SERVICE AUSTIN/SAN ANTONIO TX
200 AM CDT TUE JUL 29 2014

NOTE: "FAIR" INDICATED FEW OR NO CLOUDS BELOW 12,000 FEET WITH NO
SIGNIFICANT WEATHER AND/OR OBSTRUCTIONS TO VISIBILITY.

BAJA CALIFORNIA
  
CITY           SKY/WX    TMP DP  RH WIND       PRES   REMARKS
LA PAZ           N/A    N/A N/A N/A MISG        N/A                   
TIJUANA        PTCLDY    70  63  78 CALM      30.07                   

NORTHWESTERN MEXICO
  
CITY           SKY/WX    TMP DP  RH WIND       PRES   REMARKS

NORTHEASTERN MEXICO
  
CITY           SKY/WX    TMP DP  RH WIND       PRES   REMARKS
MONTERREY      CLEAR     81  68  65 E9        30.05S                  
REYNOSA        PTCLDY    75  70  83 SE7       30.05                   
SALTILLO       CLEAR     75  57  53 CALM      30.26S                  
CD. VICTORIA   CLEAR     79  68  69 S8G20     30.06F                  

WESTERN MEXICO
  
CITY           SKY/WX    TMP DP  RH WIND       PRES   REMARKS
DEL BAJIO      MOCLDY    57  55  94 CALM      30.38F                  
GUADALAJARA    CLOUDY    61  55  82 W5        30.28F                  
MAZATLAN       MOCLDY    79  72  78 NE9       29.93S                  
P. VALLARTA    CLOUDY    81  75  83 CALM      29.94S                  

CENTRAL MEXICO
  
CITY           SKY/WX    TMP DP  RH WIND       PRES   REMARKS
MEXICO CITY    PTCLDY    55  52  88 NE7       30.42F                  
MORELIA        PTCLDY    54  52  94 CALM      30.32F                  
QUERETARO      PTCLDY    59  50  72 NE9       30.40F                  
S. LUIS POTOSI CLEAR     55  48  76 CALM      30.36                   
TOLUCA         MOCLDY    48  45  87 E6        30.49F WCI  46          

SOUTHERN MEXICO
  
CITY           SKY/WX    TMP DP  RH WIND       PRES   REMARKS
ACAPULCO       PTCLDY    82  79  89 CALM      29.89F HX  93           

YUCATAN PENINSULA
  
CITY           SKY/WX    TMP DP  RH WIND       PRES   REMARKS
CANCUN         PTCLDY    82  77  83 SE6       30.05S HX  91           
COZUMEL        PTCLDY    75  75 100 CALM      30.04F                  
MERIDA         MOCLDY    77  72  83 E5        30.04F                  
TAPACHULA      TSTM      77  73  88 S23       29.95S VSB 1            

CENTRAL AMERICA
  
CITY           SKY/WX    TMP DP  RH WIND       PRES   REMARKS

CARIBBEAN
  
CITY           SKY/WX    TMP DP  RH WIND       PRES   REMARKS
ARUBA          PTCLDY    81  75  83 E13       29.92S                  
CURACAO        PTCLDY    81  75  83 SE12      29.94F                  
KINGSTON       PTCLDY    82  75  78 NW7       29.97F                  
NASSAU         PTCLDY    82  75  78 S2        30.01F                  
SAN JUAN       PTCLDY    81  72  74 SE5       30.01F                  
SANTO DOMINGO  PTCLDY    77  72  83 NE5       30.00S                  
ST. CROIX      PTCLDY    79  72  78 NE6       30.02F                  
ST. MAARTEN    PTCLDY    81  73  78 E6        30.00F                  
ST. THOMAS     CLEAR     81  73  78 E6        30.01F                  

$$


Return to Home page


Western Regional Climate Center, wrcc@dri.edu